[[{"header":{"parameterUnit":"m.s-1","parameterCategory":1,"la1":30.2991,"la2":30.254,"lo1":-89.0895,"lo2":-89.0444,"dy":0.0017,"dx":0.0017,"nx":28,"ny":28,"refTime":"2024-09-25T21:00:00:Z","depth":0,"parameterNumber":2,"parameterNumberName":"U-component_of_WINDS"},"data":[0,0,0,0,0,0,0,0,0,0,0,0,0,0,0,0,0,0,0,0,0,0,0,0,0,0,0,0,0,0,0,0,0,0,0,0,0,0,0,0,0,0,0,0,0,0,0,0,0,0,0,0,0,0,0,0,0,0,5.4296,5.4297,0,5.4447,5.4449,5.445,5.4402,5.4399,5.4395,5.4392,5.4548,5.4555,5.4562,0,0,0,0,0,0,0,0,0,0,0,0,0,5.3965,5.3972,5.4295,5.4297,5.4299,5.4447,5.4449,5.4451,5.4402,5.4398,5.4394,5.4391,5.4546,5.4554,5.4563,0,0,0,0,0,0,0,0,0,0,0,0,0,5.4112,5.3974,5.4295,5.4293,5.4294,5.4446,5.4449,5.4451,5.4403,5.4398,5.4393,5.4389,5.4543,5.4553,5.4564,5.4728,0,0,5.4597,5.4602,0,0,0,0,0,0,0,0,5.4104,5.4124,5.4291,5.4293,5.4295,5.44,5.439,5.4544,5.4404,5.4362,5.4392,5.4387,5.4503,5.4517,5.4556,5.4735,5.4742,5.4598,5.4604,5.4609,5.4612,0,0,0,0,0,0,0,5.4094,5.4117,5.4355,5.4294,5.4296,5.4285,5.43,5.4419,5.4458,5.4365,5.4362,5.4381,5.4503,5.4546,5.4559,5.4744,5.4598,5.4607,5.4614,5.4618,5.5067,5.5072,0,0,0,0,0,0,5.4082,5.4109,5.4351,5.436,5.4185,5.4295,5.4312,5.4372,5.4456,5.4465,5.4385,5.4378,5.453,5.4547,5.4564,5.4762,5.4609,5.4619,5.4625,5.5061,5.5068,5.5074,0,0,0,0,0,0,5.4075,5.4104,5.4344,5.4234,5.4264,5.4305,5.4373,5.4377,5.442,5.4471,5.4478,5.4421,5.4526,5.4549,5.4688,5.4767,5.4624,5.4634,5.5055,5.5063,5.5071,5.5159,0,0,0,0,0,0,5.4066,5.4102,5.4164,5.4236,5.427,5.4465,5.4378,5.4384,5.4438,5.4431,5.4507,5.4515,5.4524,5.4672,5.4699,5.4779,5.4642,5.5048,5.5058,5.5068,5.5149,5.5169,5.5186,0,0,0,0,0,5.4055,5.4183,5.4168,5.4197,5.4348,5.447,5.4489,5.4497,5.4445,5.4508,5.4541,5.4512,5.4754,5.4687,5.4716,5.4801,5.5043,5.5055,5.5067,5.5141,5.5165,5.5186,0,0,0,0,0,0,5.412,5.4192,5.4176,5.4332,5.4395,5.4461,5.4541,5.4523,5.4603,5.4592,5.4599,5.4617,5.4759,5.4794,5.4717,5.4965,5.4891,5.491,5.4937,5.496,5.4979,5.4967,5.4651,0,0,0,0,0,5.4153,5.4245,5.4303,5.4435,5.4468,5.4499,5.4552,5.4553,5.4619,5.4646,5.4689,5.4754,5.4845,5.4905,5.4991,5.5154,5.517,5.5228,5.5246,5.5261,5.5277,5.5367,5.5393,5.5114,5.5114,5.5114,0,0,5.4221,5.4272,5.433,5.445,5.4499,5.4594,5.4522,5.4626,5.4697,5.4662,5.4795,5.4829,5.4903,5.5055,5.5124,5.5088,5.5358,5.5277,5.5288,5.5296,5.5382,5.5409,5.5432,5.5122,5.5121,5.5119,0,0,5.4394,5.4442,5.4557,5.4608,5.4683,5.4704,5.4732,5.4801,5.4823,5.4957,5.4932,5.5017,5.5173,5.5227,5.5274,5.5469,5.5446,5.5497,5.5594,5.5681,5.5703,5.5723,5.5793,5.5818,5.5513,5.5513,5.5514,0,5.447,5.4612,5.4619,5.4725,5.4779,5.4751,5.4868,5.4917,5.5017,5.5055,5.5014,5.521,5.5257,5.5422,5.5469,5.5509,5.5541,5.5488,5.57,5.5719,5.5738,5.5804,5.5831,5.5519,5.5518,5.5518,5.5517,0,5.4702,5.4801,5.4885,5.4982,5.5046,5.5157,5.5181,5.5244,5.524,5.5265,5.5402,5.5458,5.5556,5.5595,5.5592,5.576,5.5735,5.5697,5.5623,5.577,5.5833,5.5858,5.5527,5.5525,5.5524,5.5522,0,0,5.492,5.5019,5.505,5.5094,5.5176,5.5253,5.5364,5.5459,5.5514,5.5584,5.5677,5.581,5.5776,5.583,5.5833,5.5909,5.6061,5.5862,5.5864,5.5897,5.625,5.6277,5.6307,5.6046,5.6051,5.6055,5.6243,0,5.51,5.5293,5.5303,5.5479,5.5572,5.5547,5.5644,5.5705,5.5731,5.5814,5.5843,5.5938,5.5885,5.5917,5.5992,5.6026,5.6132,5.6013,5.6133,5.6137,5.6115,5.634,5.637,5.6545,5.6268,5.6272,5.6275,0,5.5335,5.5413,5.5599,5.5668,5.5707,5.5793,5.5882,5.5961,5.603,5.6044,5.6105,5.6097,5.6211,5.6134,5.6291,5.621,5.626,5.6284,5.6291,5.6303,5.6215,5.6357,5.6601,5.6627,5.6314,5.6311,5.6308,0,5.5476,5.5627,5.5757,5.5796,5.588,5.5941,5.5979,5.6043,5.61,5.6178,5.6215,5.6305,5.6355,5.6425,5.6442,5.6384,5.6599,5.6523,5.6614,5.6614,5.666,5.6657,5.6915,5.6693,5.6693,5.6692,5.6692,0,5.5676,5.579,5.5822,5.5902,5.603,5.604,5.6167,5.6201,5.6258,5.6345,5.633,5.6412,5.6429,5.6515,5.6529,5.6658,5.668,5.6695,5.6697,5.6697,5.6695,5.6729,5.6717,5.6699,5.6698,5.6696,5.6695,0,5.5854,5.588,5.6021,5.6089,5.6109,5.62,5.6259,5.6336,5.6361,5.6471,5.6498,5.6538,5.6638,5.6662,5.6782,5.6791,5.6943,5.6934,5.692,5.6919,5.7009,5.7001,5.7298,5.7338,5.709,5.7092,5.7094,0,5.598,5.6067,5.6145,5.6202,5.6243,5.6335,5.6393,5.6407,5.6468,5.6554,5.6621,5.672,5.6799,5.6961,5.7001,5.7093,5.7085,5.7184,5.7099,5.7096,5.7087,5.7081,5.709,5.7199,5.7202,5.7204,5.7206,0,5.62,5.6209,5.6293,5.6382,5.6452,5.6523,5.6591,5.6639,5.6662,5.6732,5.6834,5.6896,5.7018,5.7117,5.7209,5.7249,5.7232,5.7232,5.7259,5.7258,5.7246,5.7254,5.6964,5.7225,5.7223,5.7222,5.7221,5.722,5.6356,5.6433,5.65,5.6595,5.6647,5.6711,5.6787,5.6822,5.6908,5.7008,5.7011,5.7123,5.7191,5.7313,5.7358,5.7446,5.7416,5.7454,5.7463,5.7472,5.748,5.7233,5.7463,5.7462,5.7462,5.7462,5.7461,0,5.6576,5.6618,5.6705,5.68,5.6875,5.6852,5.6927,5.6991,5.7089,5.7153,5.7232,5.735,5.7446,5.7494,5.7588,5.765,5.7645,5.7674,5.767,5.7679,5.7502,5.747,5.7677,5.7677,5.7677,5.7677,5.7677,5.7677,5.6699,5.6828,5.6845,5.7,5.7041,5.715,5.7195,5.7254,5.7305,5.7438,5.7517,5.7547,5.7606,5.7705,5.7792,5.7803,5.7839,5.7873,5.788,5.7714,5.7692,5.7671,5.764,5.788,5.7881,5.805,5.8052,5.8053]},{"header":{"parameterUnit":"m.s-1","parameterCategory":1,"la1":30.2991,"la2":30.254,"lo1":-89.0895,"lo2":-89.0444,"dy":0.0017,"dx":0.0017,"nx":28,"ny":28,"refTime":"2024-09-25T21:00:00:Z","depth":0,"parameterNumber":3,"parameterNumberName":"V-component_of_WINDS"},"data":[0,0,0,0,0,0,0,0,0,0,0,0,0,0,0,0,0,0,0,0,0,0,0,0,0,0,0,0,0,0,0,0,0,0,0,0,0,0,0,0,0,0,0,0,0,0,0,0,0,0,0,0,0,0,0,0,0,0,-4.4205,-4.4207,0,-4.4418,-4.442,-4.4423,-4.4422,-4.4419,-4.4416,-4.4413,-4.4634,-4.4642,-4.4651,0,0,0,0,0,0,0,0,0,0,0,0,0,-4.3801,-4.3808,-4.4205,-4.4207,-4.421,-4.4418,-4.442,-4.4423,-4.4422,-4.4419,-4.4415,-4.4412,-4.4631,-4.4641,-4.4652,0,0,0,0,0,0,0,0,0,0,0,0,0,-4.3991,-4.381,-4.4204,-4.4234,-4.4239,-4.4417,-4.4421,-4.4424,-4.4423,-4.4419,-4.4414,-4.441,-4.4628,-4.464,-4.4653,-4.4816,0,0,-4.4692,-4.4697,0,0,0,0,0,0,0,0,-4.398,-4.4006,-4.4227,-4.4233,-4.4238,-4.4389,-4.4359,-4.4556,-4.4424,-4.4353,-4.4413,-4.4408,-4.4556,-4.4574,-4.4624,-4.4826,-4.4835,-4.4693,-4.4701,-4.4706,-4.471,0,0,0,0,0,0,0,-4.3967,-4.3997,-4.4289,-4.4231,-4.4237,-4.4238,-4.4261,-4.4396,-4.4476,-4.4359,-4.4359,-4.4385,-4.4558,-4.4611,-4.4629,-4.4839,-4.4693,-4.4704,-4.4712,-4.4717,-4.5187,-4.5192,0,0,0,0,0,0,-4.3947,-4.3986,-4.4282,-4.4296,-4.4096,-4.4249,-4.4274,-4.4345,-4.4474,-4.449,-4.4388,-4.4384,-4.4592,-4.4614,-4.4637,-4.4837,-4.4706,-4.4718,-4.4725,-4.5182,-4.5188,-4.5194,0,0,0,0,0,0,-4.3939,-4.3974,-4.4274,-4.4141,-4.4179,-4.4261,-4.434,-4.4351,-4.4404,-4.4496,-4.451,-4.4427,-4.4589,-4.4619,-4.4771,-4.4845,-4.4724,-4.4735,-4.5177,-4.5184,-4.5191,-4.5238,0,0,0,0,0,0,-4.3927,-4.3971,-4.4032,-4.4142,-4.4186,-4.4404,-4.4344,-4.4358,-4.4426,-4.4423,-4.4537,-4.4552,-4.4588,-4.4752,-4.4784,-4.486,-4.4745,-4.5171,-4.518,-4.5189,-4.523,-4.5246,-4.526,0,0,0,0,0,-4.3913,-4.4037,-4.4035,-4.4071,-4.4265,-4.4408,-4.4434,-4.4472,-4.4432,-4.4495,-4.4555,-4.4548,-4.4831,-4.4768,-4.4804,-4.4885,-4.5166,-4.5177,-4.5188,-4.5224,-4.5243,-4.5259,0,0,0,0,0,0,-4.3935,-4.4052,-4.4051,-4.4215,-4.4302,-4.4408,-4.4489,-4.4491,-4.4591,-4.4584,-4.4629,-4.4655,-4.4807,-4.4861,-4.4789,-4.505,-4.4994,-4.5012,-4.5009,-4.5028,-4.5042,-4.5027,-4.4756,0,0,0,0,0,-4.3959,-4.4064,-4.4161,-4.4297,-4.434,-4.4407,-4.4471,-4.4493,-4.4585,-4.4622,-4.4692,-4.4782,-4.4891,-4.4963,-4.5068,-4.5238,-4.5264,-4.5311,-4.5326,-4.5337,-4.5353,-4.5449,-4.5472,-4.5229,-4.5229,-4.5229,0,0,-4.4009,-4.4086,-4.415,-4.4303,-4.4373,-4.4482,-4.4438,-4.4555,-4.4637,-4.464,-4.4788,-4.4843,-4.4947,-4.5109,-4.5184,-4.5159,-4.5426,-4.5351,-4.536,-4.537,-4.5462,-4.5485,-4.5506,-4.5237,-4.5236,-4.5234,0,0,-4.4158,-4.4226,-4.4347,-4.4417,-4.4523,-4.4567,-4.4596,-4.4702,-4.4739,-4.4888,-4.4893,-4.4992,-4.5179,-4.5253,-4.5315,-4.5492,-4.5491,-4.5526,-4.5602,-4.5695,-4.5714,-4.5731,-4.5796,-4.5818,-4.5541,-4.5541,-4.5541,0,-4.4207,-4.4371,-4.4409,-4.4527,-4.4595,-4.4601,-4.4725,-4.4792,-4.4927,-4.4975,-4.4944,-4.518,-4.525,-4.543,-4.5474,-4.5524,-4.5559,-4.5513,-4.5708,-4.5725,-4.5742,-4.5804,-4.5828,-4.5545,-4.5544,-4.5544,-4.5544,0,-4.4428,-4.4542,-4.4627,-4.4757,-4.4834,-4.4955,-4.5012,-4.5086,-4.5102,-4.5149,-4.5303,-4.5387,-4.551,-4.5555,-4.5571,-4.5739,-4.572,-4.5698,-4.5643,-4.5768,-4.5827,-4.5852,-4.555,-4.5549,-4.5547,-4.5547,0,0,-4.4597,-4.4746,-4.4777,-4.4836,-4.4954,-4.5043,-4.5164,-4.5284,-4.5348,-4.5441,-4.5545,-4.5704,-4.5685,-4.5755,-4.5781,-4.5862,-4.5999,-4.5831,-4.5834,-4.586,-4.619,-4.6206,-4.6233,-4.5998,-4.6003,-4.6007,-4.6182,0,-4.4759,-4.4973,-4.5011,-4.5199,-4.5305,-4.5313,-4.5419,-4.5504,-4.5552,-4.565,-4.5703,-4.5816,-4.5781,-4.5824,-4.5905,-4.5965,-4.6066,-4.5953,-4.6097,-4.6102,-4.6072,-4.6264,-4.6282,-4.6443,-4.6205,-4.6209,-4.6212,0,-4.4976,-4.5074,-4.5272,-4.5377,-4.5423,-4.5517,-4.5631,-4.5725,-4.5821,-4.585,-4.593,-4.5946,-4.6074,-4.6012,-4.619,-4.6112,-4.6174,-4.6212,-4.6219,-4.6235,-4.6165,-4.6286,-4.6495,-4.652,-4.6249,-4.6246,-4.6243,0,-4.508,-4.5262,-4.5405,-4.5455,-4.558,-4.5647,-4.5702,-4.5794,-4.5864,-4.5964,-4.6011,-4.6124,-4.6187,-4.6275,-4.6322,-4.6273,-4.6498,-4.6439,-4.6527,-4.6526,-4.6574,-4.6571,-4.6797,-4.6612,-4.6612,-4.6611,-4.6611,0,-4.5258,-4.5379,-4.5454,-4.5542,-4.5678,-4.5721,-4.5856,-4.591,-4.5992,-4.6092,-4.6106,-4.62,-4.6256,-4.6358,-4.6396,-4.6538,-4.6566,-4.6594,-4.6603,-4.6594,-4.659,-4.6635,-4.6626,-4.6618,-4.6616,-4.6615,-4.6614,0,-4.5398,-4.5452,-4.5609,-4.5714,-4.5743,-4.584,-4.5931,-4.6017,-4.6065,-4.6191,-4.6223,-4.6299,-4.642,-4.6475,-4.6625,-4.665,-4.6813,-4.6813,-4.678,-4.6784,-4.6869,-4.686,-4.7132,-4.7171,-4.6959,-4.6961,-4.6963,0,-4.5508,-4.5602,-4.5717,-4.5784,-4.5841,-4.5949,-4.6021,-4.6067,-4.6141,-4.6259,-4.6332,-4.6453,-4.6553,-4.6746,-4.6815,-4.693,-4.6934,-4.7022,-4.6952,-4.694,-4.6938,-4.6932,-4.6942,-4.7035,-4.7037,-4.7038,-4.704,0,-4.5698,-4.5721,-4.5822,-4.5935,-4.602,-4.6111,-4.62,-4.6255,-4.6315,-4.6398,-4.6522,-4.6599,-4.6752,-4.6873,-4.6993,-4.7051,-4.7057,-4.7061,-4.7088,-4.708,-4.7057,-4.7072,-4.6816,-4.7055,-4.7054,-4.7052,-4.7052,-4.7051,-4.5828,-4.5912,-4.6006,-4.612,-4.6192,-4.6275,-4.6362,-4.642,-4.6524,-4.6651,-4.6672,-4.6804,-4.69,-4.7062,-4.7124,-4.7229,-4.7209,-4.7247,-4.7257,-4.7266,-4.7272,-4.704,-4.7251,-4.7251,-4.7251,-4.725,-4.725,0,-4.602,-4.6081,-4.6185,-4.6309,-4.6399,-4.6395,-4.6494,-4.657,-4.6685,-4.6773,-4.6871,-4.7014,-4.7132,-4.721,-4.733,-4.7399,-4.7405,-4.7429,-4.7425,-4.7439,-4.7282,-4.7248,-4.7423,-4.7423,-4.7423,-4.7422,-4.7422,-4.7422,-4.613,-4.6273,-4.6306,-4.6485,-4.6546,-4.6675,-4.6732,-4.6809,-4.688,-4.7038,-4.7136,-4.7186,-4.7271,-4.7397,-4.7506,-4.7526,-4.757,-4.7595,-4.7615,-4.7468,-4.745,-4.7432,-4.7401,-4.7604,-4.7605,-4.7763,-4.7765,-4.7766]}]]